RH
78 80 84 86 87 90 87 90 92 87 89 90 87 88 85 76 76 76 72 74 74 75 75 74 73 70 69 68 69 70 73 74 72 70 70 73 70 70 75 73 69 67 66 64 64 65 67 70 70 64 56 47 43 42 40 39 38 33 27 26 27 27 29 32 34 35 35 36 37 39 41 43 45 46 47 46 46 45 45 45 45 45 45 47 48 49 49 49 51 54 58 60 61 58 55 51 45
78 82 86 88 88 88 86 89 89 87 90 91 86 83 81 78 77 74 71 76 77 78 74 70 70 68 66 66 67 67 71 72 70 69 67 69 71 71 71 69 66 64 63 61 60 60 59 63 64 59 52 44 41 41 38 37 35 29 26 26 26 28 31 33 34 35 36 36 38 40 41 43 44 46 46 46 46 46 45 45 45 46 45 46 47 49 50 50 51 53 56 59 62 61 59 54 45
79 83 86 87 88 88 88 88 87 87 88 87 85 80 79 79 75 72 74 78 75 75 74 70 70 68 66 65 66 65 66 67 67 66 66 69 69 70 68 65 64 63 62 59 58 57 55 55 55 52 47 42 40 39 37 36 32 27 25 25 26 29 32 34 34 35 37 38 40 41 42 43 44 45 46 45 45 46 45 45 45 45 45 46 47 49 51 51 51 53 55 58 61 62 62 59 48
80 84 84 84 87 89 89 89 85 85 84 84 84 77 77 78 72 71 75 77 72 72 72 69 69 69 68 66 63 61 61 63 65 64 65 68 65 65 65 64 63 62 62 59 56 54 51 51 49 47 44 40 39 37 36 35 30 26 24 24 25 29 32 33 34 37 40 41 42 42 43 44 44 45 45 44 43 44 44 45 44 44 44 45 46 46 48 49 51 53 56 58 60 62 62 61 53
80 83 84 83 84 84 84 87 84 81 80 80 80 74 74 75 70 70 72 72 71 71 70 67 67 67 67 66 63 61 61 61 64 64 63 63 63 62 62 63 62 61 62 60 55 50 48 48 45 44 42 40 38 36 35 34 29 25 24 23 25 29 33 34 36 40 43 43 44 45 47 48 49 49 48 46 45 45 45 46 45 45 45 46 46 46 46 47 49 52 55 58 60 61 62 62 56
78 81 83 82 83 83 82 84 82 77 74 75 76 71 70 69 66 68 71 71 69 69 68 66 65 65 67 66 63 61 60 61 63 65 62 60 62 62 61 61 60 59 59 60 55 49 46 45 44 42 40 39 38 35 35 34 28 25 24 23 25 30 34 37 40 43 45 46 47 48 50 52 53 52 52 51 50 48 48 48 49 49 49 48 48 48 47 46 46 49 52 55 58 60 61 62 60
79 81 81 81 83 82 80 80 79 73 69 74 74 68 65 63 63 67 69 70 68 68 68 67 66 64 67 66 63 62 60 61 62 63 62 60 61 61 59 59 60 59 59 60 54 48 45 43 43 42 41 39 37 36 36 32 27 24 23 23 27 32 37 40 42 45 47 48 49 50 51 51 51 51 51 52 53 52 51 51 51 51 50 50 50 50 49 48 46 47 49 52 55 57 59 62 61
78 82 82 82 82 79 76 74 72 69 66 70 70 64 62 60 62 65 66 67 65 66 66 67 66 64 66 65 61 60 60 62 61 59 61 60 58 57 56 57 59 60 61 58 51 46 44 42 43 42 41 39 37 36 36 32 26 24 23 26 29 34 39 42 44 45 47 49 50 50 49 49 49 48 48 48 51 53 52 52 52 52 51 51 52 53 52 50 48 47 49 51 53 55 59 61 60
77 81 82 81 81 78 75 72 69 67 64 62 62 60 60 62 61 59 62 63 61 64 65 65 65 63 66 65 61 61 61 61 58 58 61 60 57 56 56 56 55 57 58 54 47 44 43 42 42 41 40 38 37 36 35 30 25 24 26 29 32 35 40 42 43 44 46 47 48 48 47 47 46 45 44 45 47 50 50 51 51 50 50 50 52 53 53 51 49 48 48 49 51 55 56 58 58
75 78 80 78 79 78 73 69 66 65 61 58 59 58 59 63 61 57 58 60 60 61 62 62 62 61 64 65 63 63 61 58 57 57 59 59 58 58 58 57 56 55 53 49 46 43 42 42 42 41 39 37 37 36 33 28 25 26 30 32 33 36 39 41 43 45 46 46 47 48 47 46 45 42 40 41 42 45 48 49 48 48 48 50 51 53 53 52 50 49 48 48 49 51 53 53 56
74 76 79 79 78 77 74 67 64 62 59 57 58 57 58 59 60 58 58 62 62 58 56 57 60 61 61 63 64 62 59 57 57 55 55 57 59 59 58 59 59 54 48 46 44 41 41 42 42 41 39 37 35 33 30 27 27 30 33 33 33 35 38 41 43 45 45 46 47 47 47 46 45 42 38 38 40 44 49 50 50 49 50 50 52 52 53 53 52 52 51 50 49 49 50 51 53
74 74 78 80 76 75 75 71 69 63 56 56 58 58 57 57 57 59 60 63 62 59 59 57 58 59 57 61 62 60 58 56 55 53 53 56 58 58 58 59 60 55 47 45 42 40 41 41 41 40 39 35 33 30 28 28 29 32 33 33 32 35 39 41 43 44 44 44 44 44 44 44 43 40 39 39 42 47 49 50 49 49 49 48 49 49 50 50 51 52 53 53 52 50 51 52 52
71 73 77 81 76 69 69 68 65 64 59 57 59 57 57 58 57 59 61 59 59 63 62 56 55 54 54 58 59 58 58 54 53 52 51 54 57 58 58 57 59 56 48 43 41 40 39 40 39 38 37 33 32 30 27 28 30 33 33 31 32 35 39 41 42 43 42 41 40 41 41 40 39 39 39 40 44 46 46 47 47 48 49 50 50 51 51 51 51 51 51 53 55 54 53 54 54
69 72 76 77 73 66 64 60 57 61 63 56 53 55 57 57 55 55 57 58 60 61 60 56 52 49 49 52 55 58 56 53 52 51 50 51 53 56 57 56 55 54 50 44 41 40 38 37 37 37 36 33 31 29 28 29 31 33 31 30 32 34 37 38 40 41 39 38 38 39 39 38 37 38 38 40 42 44 46 47 48 50 52 53 54 55 57 57 55 53 53 54 56 56 55 55 56
66 69 73 72 72 71 64 59 57 59 57 51 51 54 54 54 55 57 55 57 56 53 56 58 53 48 46 47 50 53 52 50 51 50 49 50 51 53 56 57 53 51 52 48 41 39 38 35 36 36 36 35 31 28 28 28 31 32 30 29 30 32 34 35 37 38 37 36 36 36 37 37 35 36 37 39 40 41 44 46 48 50 50 49 50 52 54 54 53 52 53 54 55 55 56 56 56
65 66 70 71 73 74 66 59 58 57 53 49 51 54 54 52 56 59 54 49 47 47 54 55 52 48 43 44 46 47 49 48 49 49 48 49 51 52 55 56 52 50 51 49 42 38 37 37 37 37 36 36 32 28 28 29 32 31 28 28 29 30 31 32 34 35 35 33 32 33 34 34 33 34 35 35 37 38 40 42 44 45 44 43 44 45 46 47 47 47 49 50 52 52 52 53 53
62 63 68 70 68 68 65 60 58 59 55 48 49 54 55 52 51 53 50 45 44 48 50 48 47 46 41 42 44 44 47 47 47 48 47 48 50 50 54 56 53 50 48 48 44 39 38 40 38 37 36 36 34 29 28 30 31 29 28 27 28 29 30 30 31 32 31 30 29 31 34 36 36 36 35 35 35 35 37 38 39 40 41 40 40 40 39 40 41 41 42 44 47 47 46 46 45
59 62 68 67 63 63 61 59 59 58 56 49 50 55 54 52 47 47 51 49 47 47 47 46 47 49 46 42 42 43 45 46 46 47 47 47 49 49 53 55 53 51 49 47 45 42 41 42 39 37 37 38 36 31 29 30 30 29 27 27 27 28 29 29 29 29 29 31 32 34 39 39 41 41 40 38 36 34 35 36 37 39 40 39 38 38 39 40 40 40 40 42 45 46 48 45 43
55 59 69 67 60 62 60 61 61 55 56 53 50 55 54 51 45 47 55 53 50 50 48 50 50 48 44 41 43 42 42 45 45 46 47 47 47 48 50 53 53 51 49 47 45 44 43 42 39 36 37 41 38 31 30 30 28 27 26 27 27 28 29 27 27 28 31 35 36 40 43 42 42 42 39 38 35 34 34 35 37 39 41 41 41 41 43 44 45 44 43 45 45 46 48 47 44
53 53 65 68 59 60 61 62 59 53 59 58 49 51 53 50 46 49 55 53 54 55 52 53 48 42 40 39 43 43 42 43 44 45 46 47 46 47 49 50 51 50 49 48 45 44 44 42 40 36 37 41 37 31 30 29 27 26 25 26 27 28 28 27 26 29 34 40 40 42 45 43 40 38 35 35 35 34 35 37 39 43 44 46 47 47 49 48 45 45 47 49 48 49 50 46 43
52 50 57 63 58 60 61 60 57 51 56 58 48 46 49 50 47 48 52 51 54 56 57 56 46 39 38 37 40 41 42 41 42 44 44 46 46 47 49 48 50 51 50 49 47 46 44 41 41 38 37 38 33 31 30 27 26 25 25 26 27 29 29 28 27 28 36 42 45 44 44 44 40 38 37 38 42 41 41 45 46 47 49 50 50 51 53 49 45 48 53 52 49 51 51 45 43
48 50 54 58 59 62 63 60 58 54 55 57 48 45 51 51 46 46 49 50 52 55 60 57 44 40 38 35 37 38 39 38 39 42 42 45 46 47 49 48 50 50 50 50 48 47 45 41 40 37 34 34 33 32 30 27 25 24 25 27 27 28 29 28 28 30 36 42 49 47 43 47 46 44 44 45 49 47 47 51 50 48 52 53 51 51 52 48 45 48 56 57 50 51 52 50 46
45 48 52 54 57 60 62 60 60 57 57 57 50 48 53 51 47 48 47 47 50 52 58 57 46 41 39 36 35 35 37 37 37 38 40 42 42 44 46 47 49 49 49 51 49 48 47 43 40 36 31 32 34 34 32 28 26 26 27 29 28 30 30 29 32 36 39 42 46 47 46 50 49 47 48 50 50 49 51 54 52 50 51 54 52 51 50 48 45 45 53 56 53 53 53 54 50
44 47 49 52 53 54 57 57 55 54 53 55 50 47 50 49 48 50 49 48 48 50 55 55 47 42 40 39 36 34 37 37 36 36 39 40 39 43 44 44 48 49 48 51 50 47 47 46 40 36 33 32 34 35 36 30 27 30 31 31 32 34 35 35 40 41 43 43 42 47 50 48 49 49 48 50 49 50 54 54 55 54 51 53 53 51 49 49 49 48 52 55 57 58 54 55 55
45 47 48 52 53 55 59 55 50 49 50 52 49 44 47 48 46 49 52 51 49 50 53 51 48 44 41 40 37 35 36 37 37 37 39 40 39 41 43 42 45 48 48 50 50 44 44 45 41 36 34 33 35 36 38 35 29 33 36 34 35 39 39 41 46 43 43 44 40 45 50 49 52 51 47 51 52 51 51 50 51 51 49 49 50 50 49 50 52 50 51 52 54 56 54 54 57
47 47 47 49 51 57 62 55 48 48 49 52 50 45 44 45 44 47 50 50 49 49 51 48 45 43 40 40 39 37 37 36 37 37 39 41 39 39 39 38 41 45 47 49 47 42 41 43 41 38 34 32 34 35 38 38 32 34 39 36 37 41 41 44 47 45 43 42 39 39 46 52 53 51 49 51 52 50 47 47 48 47 47 47 48 49 49 50 52 50 48 49 51 51 49 49 53
47 48 48 48 47 51 56 55 51 49 51 52 50 46 45 45 44 46 47 50 53 51 49 45 41 40 37 37 37 37 37 36 36 37 38 40 38 37 36 36 38 42 45 47 46 41 40 42 40 40 38 32 32 34 37 40 35 34 39 38 38 39 40 45 45 45 44 41 40 36 39 49 52 52 51 49 49 48 46 46 47 48 48 48 47 48 48 48 52 49 42 44 49 51 48 45 46
46 47 48 48 47 47 49 54 54 51 51 51 49 48 48 45 42 46 51 53 55 55 52 46 41 41 37 35 37 36 35 35 36 36 37 38 36 36 35 35 37 40 43 47 47 42 40 41 40 40 40 36 33 35 38 39 37 36 39 37 39 37 37 43 44 44 45 43 42 37 35 41 48 52 49 46 48 46 45 44 43 47 47 46 46 44 44 45 50 49 43 43 47 50 51 44 42
42 45 48 50 49 49 47 50 53 50 50 51 49 48 50 47 42 45 51 55 56 55 54 50 45 44 39 37 38 37 34 33 33 34 36 37 36 36 36 36 36 38 41 45 46 46 44 42 41 39 39 38 35 37 39 39 37 37 37 37 40 37 35 39 41 42 45 44 41 36 33 34 40 48 46 45 47 45 44 43 41 45 45 44 44 42 44 46 46 46 45 47 46 48 53 46 41
38 42 48 51 50 49 47 47 50 50 50 52 50 48 50 48 44 44 46 54 57 53 54 55 50 46 44 40 38 38 35 31 30 30 34 37 36 35 36 36 36 37 39 41 43 45 45 42 41 39 39 37 35 38 39 37 37 37 37 37 40 38 34 35 39 40 41 42 40 34 31 31 33 39 40 40 43 46 45 43 43 47 45 43 44 44 47 51 49 48 45 43 43 45 50 47 41
38 41 45 48 47 46 46 46 47 48 49 50 50 49 48 45 45 46 45 53 57 53 55 56 52 51 49 45 40 37 34 32 33 32 32 35 36 34 35 37 37 37 38 38 40 42 43 42 41 39 39 37 34 37 38 36 36 38 37 37 38 37 33 33 37 39 40 40 38 33 29 30 29 31 34 34 38 45 48 47 45 47 45 43 46 44 44 50 52 51 45 40 41 42 43 45 44
35 39 41 41 42 43 43 44 43 44 47 49 49 48 46 43 44 46 47 54 58 55 56 53 51 51 49 47 43 37 35 35 39 41 37 35 35 33 33 36 38 37 38 38 38 40 41 42 42 40 40 37 33 36 38 36 38 39 38 38 38 35 33 33 35 39 39 39 38 33 28 29 28 28 30 32 34 39 46 50 48 47 44 42 46 43 40 48 49 45 41 38 39 39 41 47 48
31 34 36 37 38 39 40 42 42 41 44 46 47 45 44 44 44 44 46 54 57 54 56 53 50 48 47 49 45 38 37 38 40 43 42 36 33 33 32 34 37 37 39 39 37 38 39 39 41 41 41 36 32 36 39 39 39 39 37 38 38 34 33 34 36 40 40 39 38 35 30 27 27 27 28 29 32 34 41 49 51 50 46 42 44 41 41 46 47 45 40 38 38 38 43 49 47
29 29 31 33 34 37 38 40 41 40 41 44 45 43 43 45 45 44 46 51 57 55 54 53 51 49 46 47 45 40 39 40 38 37 40 38 32 32 32 33 35 36 39 40 36 36 37 38 38 39 41 37 33 37 40 39 39 38 38 38 38 35 34 37 38 40 40 38 38 36 32 28 26 25 26 28 30 32 39 45 49 52 48 44 41 39 43 45 44 44 42 42 42 39 43 46 46
27 27 28 29 30 35 38 37 38 39 40 42 44 42 43 45 45 46 47 50 58 57 51 50 52 51 48 44 43 42 42 41 39 34 37 41 36 32 32 33 34 35 37 39 36 34 35 35 35 35 38 38 36 37 39 39 37 37 38 37 38 36 34 36 39 40 41 40 39 37 33 30 27 26 25 27 29 30 35 38 42 48 46 45 43 40 44 46 43 43 43 44 43 41 43 44 45
26 26 25 26 26 30 35 34 34 37 40 41 42 42 42 43 44 45 45 47 55 57 53 50 49 51 51 45 42 43 44 43 41 37 37 41 39 34 33 32 33 34 35 37 35 33 32 32 33 32 34 36 36 37 37 37 37 36 36 36 36 34 32 35 38 39 39 40 41 38 34 32 29 27 25 26 28 28 30 33 39 45 44 44 44 42 45 48 47 46 44 42 42 46 47 45 46
22 25 25 25 24 26 31 32 32 36 40 43 43 42 42 42 43 43 44 48 53 53 55 53 47 47 50 46 43 43 43 43 43 41 41 40 37 35 34 32 33 34 33 34 34 34 31 30 31 31 32 33 33 34 33 33 35 34 32 33 34 32 29 33 36 37 38 39 41 39 37 34 30 28 26 26 27 27 28 32 39 45 44 43 44 43 45 49 49 46 43 42 45 50 50 48 46
19 22 24 27 29 28 28 29 31 35 39 41 42 42 40 42 43 43 45 50 51 50 52 53 49 45 47 47 44 42 42 42 43 43 43 40 36 35 35 33 32 32 33 34 34 34 32 29 30 30 30 31 31 30 29 29 31 30 28 30 33 32 27 28 32 34 36 39 39 38 37 34 30 28 28 28 27 28 28 31 39 44 44 44 44 42 42 45 47 45 45 48 49 49 48 48 43
19 18 21 25 29 30 28 28 31 33 36 39 40 40 38 40 44 44 46 45 46 47 49 52 52 48 46 47 45 43 40 40 42 44 43 41 37 34 34 34 31 31 32 34 34 34 33 30 29 29 29 30 30 29 27 27 28 27 26 27 29 31 27 26 30 32 33 36 37 37 36 31 27 27 29 29 28 28 28 32 40 44 44 44 42 42 42 44 46 46 47 49 49 49 47 44 40
21 19 17 18 24 29 28 27 29 30 33 34 36 37 38 40 42 43 44 44 43 45 46 48 50 49 46 46 45 44 41 40 42 44 43 42 40 35 33 33 31 30 31 32 33 34 33 31 30 28 28 28 29 29 27 26 27 27 26 26 26 29 30 29 30 31 32 34 35 36 35 31 26 25 27 28 28 28 28 33 40 43 43 43 41 44 47 46 47 49 50 49 46 48 46 41 37
20 20 17 14 18 26 26 24 25 26 30 34 34 37 40 40 41 41 42 44 43 43 44 43 45 49 48 44 44 43 41 41 41 43 43 40 39 35 31 31 32 30 30 30 32 33 32 30 29 29 28 28 28 27 26 25 27 28 27 27 27 27 30 30 29 30 31 32 33 33 33 31 26 23 24 26 28 28 28 34 40 41 43 43 40 43 47 49 49 49 52 51 45 43 43 41 37
20 19 17 14 14 20 25 24 23 24 28 32 33 35 39 38 39 40 41 41 41 40 42 42 41 46 47 42 44 44 42 43 42 42 42 40 39 37 31 31 34 31 29 28 30 33 33 30 29 29 28 28 28 26 26 24 24 25 25 26 26 25 26 29 29 28 29 31 31 31 33 33 29 25 23 24 26 27 27 32 39 41 44 45 42 41 45 48 50 48 50 50 43 40 41 42 40
21 18 15 14 12 15 22 23 23 24 24 27 30 33 35 35 37 40 38 38 40 39 40 41 40 42 43 41 42 45 44 42 41 40 42 42 40 38 33 32 33 33 30 29 29 31 32 30 28 28 28 28 27 25 24 24 23 23 23 22 22 21 21 27 30 28 28 30 30 30 32 33 31 29 27 24 23 25 27 31 37 40 41 43 43 42 42 46 49 49 49 48 43 38 39 42 41
18 16 13 13 12 13 17 21 23 23 22 24 27 32 33 32 34 36 34 33 36 36 36 39 40 40 40 40 40 44 44 40 39 38 38 41 39 38 39 34 32 35 35 31 30 30 31 29 27 27 27 27 26 25 22 22 23 23 22 21 20 19 18 23 28 28 28 31 31 29 31 32 29 29 29 25 22 23 26 30 36 38 37 39 42 42 42 44 48 50 50 48 43 38 37 39 40
15 13 12 11 11 12 12 16 20 22 23 24 25 28 30 30 31 32 32 29 29 30 30 33 38 37 38 40 38 41 44 40 38 37 35 38 39 39 42 39 35 38 40 35 31 30 29 29 27 26 25 25 25 24 21 20 22 22 21 20 19 17 18 20 25 27 27 29 32 30 30 30 29 27 28 27 25 23 25 28 33 36 36 37 39 41 44 46 48 47 48 46 41 39 39 39 38
13 12 12 11 10 10 10 11 15 20 22 23 24 23 25 29 30 30 31 27 24 26 25 26 36 38 37 40 39 38 42 41 39 36 34 36 39 40 42 42 39 40 43 41 35 31 30 29 27 26 24 23 24 23 20 19 20 21 20 18 17 16 18 21 24 25 24 25 29 30 31 29 29 30 29 29 28 25 24 27 31 34 36 37 37 38 43 48 49 46 45 44 41 40 42 40 38
12 12 11 11 9 9 9 8 10 14 15 16 19 21 24 26 25 27 31 27 22 25 26 26 34 39 38 41 41 38 38 40 40 37 33 35 39 41 41 40 38 38 43 46 40 33 31 29 27 26 24 22 22 22 20 18 19 20 18 16 15 15 17 21 24 25 23 23 25 27 28 26 26 28 28 28 30 27 23 25 28 31 33 35 36 36 39 43 47 46 44 43 42 41 42 42 38
11 12 11 11 10 8 9 9 8 10 11 10 12 18 23 21 17 19 26 26 21 23 28 30 34 36 35 38 42 41 38 37 40 39 34 33 36 38 39 37 37 36 38 44 41 35 32 30 26 26 25 22 21 20 19 18 18 18 17 16 15 15 17 20 22 23 22 22 22 23 25 24 24 26 26 26 29 29 25 24 26 28 30 32 33 34 36 39 44 47 45 42 41 41 41 43 38
12 12 12 11 11 10 11 12 11 9 9 8 9 13 16 14 12 14 18 21 19 19 23 28 34 35 31 33 38 41 41 37 37 38 34 31 33 37 39 36 33 31 31 36 38 35 33 31 26 24 24 22 20 19 18 17 16 16 16 15 15 15 16 17 20 21 20 20 20 20 21 22 23 24 25 25 26 28 27 26 26 27 29 31 31 33 34 36 40 45 47 44 41 40 41 42 38
13 13 13 11 11 12 14 14 14 13 11 9 9 10 11 9 9 10 12 14 15 18 21 25 31 32 28 30 35 37 39 37 33 36 35 33 33 36 38 34 30 28 28 32 34 33 33 31 26 22 21 20 19 17 16 16 15 15 14 14 15 15 15 15 17 18 19 19 17 17 18 20 20 20 22 22 22 23 24 25 26 28 29 29 29 30 32 34 36 40 44 45 41 39 39 41 39
14 13 12 11 10 13 15 14 15 14 12 10 9 9 9 9 9 8 8 9 11 15 21 24 28 27 25 29 34 35 38 37 33 34 35 35 33 32 34 33 32 33 32 32 32 30 31 31 27 21 19 18 17 16 15 14 13 13 14 14 14 14 14 14 14 15 17 17 16 15 16 17 18 18 17 18 19 20 20 22 24 26 28 29 28 28 30 32 34 36 39 41 40 39 38 39 39
14 13 11 10 10 12 13 13 12 12 10 10 9 9 8 7 8 8 7 8 8 10 15 20 26 29 27 27 31 32 36 39 37 33 32 32 33 32 32 32 34 39 39 36 33 30 29 30 27 21 17 15 14 14 13 13 12 12 13 14 14 14 14 14 14 14 15 15 15 16 15 15 16 17 16 17 18 19 19 21 23 24 26 27 28 27 28 29 31 33 35 36 37 39 38 39 39
14 12 11 10 10 11 11 13 13 11 11 10 9 9 9 8 8 8 7 8 8 9 10 13 20 28 26 24 27 27 30 36 37 34 33 33 34 34 31 32 35 39 38 36 34 31 28 29 27 23 18 15 13 12 12 12 12 12 12 13 13 14 14 13 13 12 13 14 15 16 16 16 16 18 19 19 18 19 19 21 22 23 24 25 27 27 27 27 28 30 32 33 34 38 39 39 39
14 12 11 10 10 10 11 14 15 15 15 13 12 12 12 12 10 8 8 9 8 9 9 9 14 24 24 20 24 26 29 36 36 35 36 35 34 32 29 30 34 36 35 35 35 33 30 29 29 25 19 14 12 12 11 11 11 11 11 12 13 12 12 11 11 11 12 14 14 15 16 17 17 18 21 21 20 19 19 21 22 23 23 23 24 26 28 28 27 27 30 31 32 36 39 38 39
14 13 12 11 10 12 12 12 15 18 19 17 17 17 16 15 13 10 9 9 9 9 9 9 10 17 19 19 25 28 28 33 34 35 38 36 33 29 27 29 32 34 34 34 35 35 34 32 30 28 20 13 11 10 11 11 11 11 11 11 11 11 11 11 10 11 12 13 14 14 15 18 19 19 20 21 22 20 20 21 23 23 24 23 23 24 28 29 29 28 29 31 31 34 37 38 37
16 14 14 13 11 12 13 12 12 15 20 22 20 18 16 16 15 12 10 10 10 9 10 9 9 12 14 18 26 28 24 26 31 34 35 35 31 28 27 31 33 34 35 35 34 35 36 34 33 32 26 18 13 11 10 11 11 11 10 10 11 11 10 10 10 12 12 12 12 13 15 17 20 20 20 20 21 22 22 23 24 24 25 24 22 22 25 28 30 29 28 29 31 32 35 37 36
16 15 16 15 13 12 12 12 10 11 17 23 24 20 15 14 14 14 14 13 11 10 10 9 9 10 12 15 21 24 23 24 28 32 34 33 33 31 30 34 38 38 36 35 34 34 35 36 36 34 30 24 18 13 10 10 9 10 10 10 11 11 11 11 11 12 13 12 12 14 15 17 19 21 21 20 20 20 21 23 24 23 24 24 21 19 20 24 28 30 29 28 30 31 32 35 36
15 15 16 16 14 12 13 13 11 10 12 17 22 21 17 15 15 15 17 16 12 10 11 10 9 9 11 13 16 20 22 22 24 30 34 34 35 34 31 34 40 40 36 34 33 33 33 35 36 36 34 28 22 17 13 10 9 9 10 10 10 10 11 11 12 13 13 13 14 14 15 18 20 21 21 21 19 18 19 22 23 23 23 23 21 19 18 19 22 26 28 27 27 29 31 33 35